Location: Unspecified
(40.7945°N, 0.0000°E)
Time: 12:17:25
(UTC+00:00)

Courier 1B - Pass Details

Date: 26 January 2021
Orbit: 962 x 1209 km, 28.3° (Epoch: 07 March)

Event Time Altitude Azimuth Distance (km) Brightness Sun altitude
Rises 02:46:01 0° 256° (WSW) 3,653 - -50.5°
Reaches altitude 10° 02:49:30 10° 239° (WSW) 2,690 - -49.9°
Maximum altitude 02:53:46 19° 197° (SSW) 2,130 - -49.1°
Drops below altitude 10° 02:58:02 10° 155° (SSE) 2,693 - -48.4°
Sets 03:01:32 0° 138° (SE) 3,659 - -47.7°
Exits shadow 03:01:44 -1° 137° (SE) 3,721 10.8 -47.7°
